Home > Weather > Sfax > Past weeks

Flag for Tunisia Weather for the Past 2 Weeks in Sfax, Tunisia

Now
77 °F

Passing clouds.


Feels Like: 77 °F
Forecast: 56 / 76 °F
Wind: 6 mph from West

Location: Sfax El-Maou

Current Time: May 4, 2016 at 11:55:01 AM

Latest Report: May 4, 2016 at 11:00 AM


Visibility: N/A

Pressure: 30.07 "Hg

Humidity: 19%

Dew Point: 32 °F

Location of SfaxLocation

Historic Weather in Sfax — Graph

°F

Sfax Temperature Yesterday

Maximum temperature yesterday: 79 °F (at 2:00 PM)
Minimum temperature yesterday: 57 °F (at 6:00 AM)
Average temperature yesterday: 68 °F

High & Low Weather Summary for the Past Weeks

 TemperatureHumidityPressure
High81 °F (Apr 19, 12:00 PM)94% (Apr 23, 2:00 AM)30.15 "Hg (Apr 23, 2:00 AM)
Low54 °F (Apr 26, 5:00 AM)23% (May 4, 10:00 AM)29.68 "Hg (Apr 28, 4:00 PM)
Average67 °F61%29.95 "Hg
* Reported Apr 19 10:00 AM — May 4 10:00 AM, Sfax, Weather by CustomWeather, © 2016

Note: Actual official high and low records may vary slightly from our data, if they occured in-between our weather recording intervals... More about our weather records

Advertising

Sfax Weather History for the Previous 24 Hours

Scroll right to see more
 ConditionsComfort  
Time TempWeatherWind HumidityBarometerVisibility
10:00 AM
Wed, May 4
73 °FPassing clouds.6 mph23%30.09 "HgN/A
9:00 AM72 °FPassing clouds.8 mph27%30.09 "HgN/A
8:00 AM68 °FSunny.10 mph30%30.09 "Hg10 mi
7:00 AM63 °FSunny.7 mph37%30.09 "Hg10 mi
6:00 AM57 °FSunny.3 mph44%30.09 "Hg10 mi
5:00 AM54 °FPassing clouds.No wind54%30.09 "HgN/A
4:00 AM59 °FPassing clouds.3 mph48%30.09 "HgN/A
3:00 AM59 °FPassing clouds.No wind48%30.09 "HgN/A
2:00 AM61 °FPassing clouds.5 mph45%30.09 "HgN/A
1:00 AM64 °FPassing clouds.7 mph40%30.09 "HgN/A
12:00 AM64 °FPassing clouds.5 mph43%30.12 "HgN/A
11:00 PM
Tue, May 3
68 °FPassing clouds.7 mph40%30.12 "HgN/A
10:00 PM68 °FPassing clouds.5 mph56%30.12 "HgN/A
9:00 PM68 °FPassing clouds.5 mph60%30.09 "HgN/A
8:00 PM68 °FPassing clouds.7 mph64%30.07 "HgN/A
7:00 PM72 °FPassing clouds.12 mph53%30.07 "HgN/A
6:00 PM79 °FPassing clouds.8 mph28%30.04 "HgN/A
5:00 PM79 °FPassing clouds.14 mph26%30.04 "HgN/A
4:00 PM79 °FPassing clouds.13 mph26%30.04 "HgN/A
3:00 PM79 °FPassing clouds.10 mph28%30.04 "HgN/A
2:00 PM79 °FPassing clouds.13 mph28%30.07 "HgN/A
1:00 PM77 °FPassing clouds.15 mph30%30.07 "HgN/A
12:00 PM73 °FPassing clouds.18 mph33%30.09 "HgN/A
11:00 AM72 °FPassing clouds.17 mph36%30.09 "HgN/A
Weather by CustomWeather, © 2016

See weather overviewHow to use our weather pages